When you browse on this site, cookies collect data to enhance your experience and personalize the content and advertising you see.
Visit our Privacy Policy to learn more. By continuing to use the site, you agree to this use of cookies and data.
  • In Netherlands
  • List of Countries
  • For 7 days
  • Water Temperature
  • Satellite Maps
  • Weather Map
  • Weather Widgets
  • user-avatar
    Login

    Hourly Weather Balka

    Today, 21 May, Tuesday

    Time Temperature Precipitation Wind Pressure Humidity
    00:00 +16°C° 0 mm 3 mps 755 mmHg 65%
    01:00 +16°C° 0 mm 3 mps 755 mmHg 63%
    02:00 +14°C° 0 mm 3 mps 755 mmHg 61%
    03:00 +13°C° 0 mm 3 mps 754 mmHg 61%
    04:00 +13°C° 0 mm 3 mps 754 mmHg 63%
    05:00 +13°C° 0 mm 3 mps 754 mmHg 65%
    06:00 +13°C° 0 mm 3 mps 755 mmHg 67%
    07:00 +15°C° 0 mm 4 mps 755 mmHg 62%
    08:00 +18°C° 0 mm 4 mps 755 mmHg 58%
    09:00 +20°C° 0 mm 5 mps 755 mmHg 52%
    10:00 +21°C° 0 mm 5 mps 755 mmHg 50%
    11:00 +22°C° 0 mm 5 mps 755 mmHg 48%
    12:00 +24°C° 0 mm 6 mps 755 mmHg 45%
    13:00 +25°C° 0 mm 5 mps 755 mmHg 45%
    14:00 +25°C° 0 mm 5 mps 755 mmHg 45%
    15:00 +26°C° 0 mm 5 mps 754 mmHg 45%
    16:00 +25°C° 0 mm 5 mps 754 mmHg 49%
    17:00 +25°C° 0 mm 4 mps 754 mmHg 52%
    18:00 +23°C° 0 mm 4 mps 753 mmHg 55%
    19:00 +22°C° 0 mm 4 mps 753 mmHg 58%
    20:00 +20°C° 0 mm 4 mps 753 mmHg 60%
    21:00 +19°C° 0 mm 3 mps 753 mmHg 62%
    22:00 +18°C° 0 mm 4 mps 753 mmHg 60%
    23:00 +18°C° 0 mm 4 mps 753 mmHg 58%

    Tomorrow, 22 May, Wednesday

    Time Temperature Precipitation Wind Pressure Humidity
    00:00 +18°C° 0 mm 4 mps 753 mmHg 56%
    01:00 +18°C° 0 mm 4 mps 753 mmHg 57%
    02:00 +18°C° 0 mm 4 mps 752 mmHg 58%
    03:00 +17°C° 0 mm 4 mps 752 mmHg 58%
    04:00 +17°C° 0 mm 4 mps 752 mmHg 60%
    05:00 +16°C° 0 mm 5 mps 751 mmHg 62%
    06:00 +15°C° 0 mm 5 mps 751 mmHg 63%
    07:00 +16°C° 0 mm 5 mps 751 mmHg 60%
    08:00 +17°C° 0 mm 6 mps 751 mmHg 57%
    09:00 +19°C° 0 mm 6 mps 751 mmHg 53%
    10:00 +19°C° 0 mm 6 mps 751 mmHg 54%
    11:00 +20°C° 0 mm 6 mps 751 mmHg 55%
    12:00 +20°C° 0 mm 5 mps 750 mmHg 56%
    13:00 +20°C° 0.3 mm 5 mps 750 mmHg 62%
    14:00 +19°C° 0.3 mm 4 mps 750 mmHg 68%
    15:00 +19°C° 0.3 mm 3 mps 750 mmHg 74%
    16:00 +18°C° 0.7 mm 3 mps 749 mmHg 79%
    17:00 +18°C° 0.7 mm 3 mps 749 mmHg 83%
    18:00 +17°C° 0.7 mm 3 mps 749 mmHg 88%
    19:00 +17°C° 0 mm 3 mps 749 mmHg 90%
    20:00 +16°C° 0 mm 3 mps 749 mmHg 92%
    21:00 +15°C° 0 mm 2 mps 749 mmHg 94%
    22:00 +15°C° 0.7 mm 2 mps 748 mmHg 95%
    23:00 +15°C° 0.7 mm 2 mps 748 mmHg 96%

    Day after tomorrow, 23 May, Thursday

    Time Temperature Precipitation Wind Pressure Humidity
    00:00 +14°C° 0.7 mm 2 mps 748 mmHg 98%
    01:00 +14°C° 0 mm 2 mps 748 mmHg 97%
    02:00 +14°C° 0 mm 2 mps 748 mmHg 97%
    03:00 +14°C° 0 mm 2 mps 748 mmHg 96%
    04:00 +14°C° 0 mm 2 mps 748 mmHg 95%
    05:00 +15°C° 0 mm 2 mps 748 mmHg 94%
    06:00 +15°C° 0 mm 2 mps 747 mmHg 92%
    07:00 +16°C° 0 mm 3 mps 748 mmHg 86%
    08:00 +17°C° 0 mm 4 mps 748 mmHg 80%
    09:00 +19°C° 0 mm 5 mps 748 mmHg 75%
    10:00 +19°C° 0.1 mm 5 mps 748 mmHg 72%
    11:00 +20°C° 0.1 mm 6 mps 748 mmHg 70%
    12:00 +21°C° 0.1 mm 6 mps 748 mmHg 68%
    13:00 +21°C° 0.1 mm 6 mps 748 mmHg 65%
    14:00 +22°C° 0.1 mm 7 mps 747 mmHg 61%
    15:00 +23°C° 0.1 mm 7 mps 747 mmHg 58%
    16:00 +22°C° 0.3 mm 6 mps 747 mmHg 62%
    17:00 +21°C° 0.3 mm 6 mps 747 mmHg 66%
    18:00 +21°C° 0.3 mm 5 mps 747 mmHg 70%
    19:00 +19°C° 0.3 mm 4 mps 747 mmHg 75%
    20:00 +18°C° 0.3 mm 4 mps 747 mmHg 81%
    21:00 +17°C° 0.3 mm 3 mps 747 mmHg 87%
    22:00 +16°C° 0 mm 3 mps 747 mmHg 88%
    23:00 +16°C° 0 mm 3 mps 747 mmHg 90%

    24 May, Friday

    Time Temperature Precipitation Wind Pressure Humidity
    00:00 +16°C° 0 mm 3 mps 747 mmHg 91%
    01:00 +14°C° 0 mm 3 mps 747 mmHg 91%
    02:00 +14°C° 0 mm 3 mps 747 mmHg 91%
    03:00 +14°C° 0 mm 3 mps 748 mmHg 91%
    04:00 +15°C° 0 mm 2 mps 748 mmHg 90%
    05:00 +16°C° 0 mm 2 mps 748 mmHg 89%
    06:00 +16°C° 0 mm 2 mps 748 mmHg 88%
    07:00 +18°C° 0 mm 2 mps 748 mmHg 80%
    08:00 +20°C° 0 mm 2 mps 749 mmHg 73%
    09:00 +23°C° 0 mm 2 mps 749 mmHg 65%
    10:00 +24°C° 0.1 mm 2 mps 749 mmHg 61%
    11:00 +25°C° 0.1 mm 3 mps 749 mmHg 57%
    12:00 +26°C° 0.1 mm 3 mps 749 mmHg 53%
    13:00 +26°C° 0.2 mm 3 mps 749 mmHg 53%
    14:00 +26°C° 0.2 mm 4 mps 749 mmHg 53%
    15:00 +27°C° 0.2 mm 4 mps 748 mmHg 53%
    16:00 +26°C° 0.3 mm 4 mps 748 mmHg 56%
    17:00 +25°C° 0.3 mm 3 mps 748 mmHg 59%
    18:00 +25°C° 0.3 mm 3 mps 748 mmHg 61%
    19:00 +23°C° 0 mm 2 mps 748 mmHg 66%
    20:00 +20°C° 0 mm 2 mps 748 mmHg 71%
    21:00 +19°C° 0 mm 1 mps 748 mmHg 75%
    22:00 +19°C° 0 mm 1 mps 748 mmHg 74%
    23:00 +19°C° 0 mm 1 mps 748 mmHg 72%

    25 May, Saturday

    Time Temperature Precipitation Wind Pressure Humidity
    00:00 +19°C° 0 mm 1 mps 748 mmHg 70%
    01:00 +18°C° 0 mm 1 mps 748 mmHg 70%
    02:00 +16°C° 0 mm 1 mps 747 mmHg 71%
    03:00 +16°C° 0 mm 1 mps 747 mmHg 72%
    04:00 +16°C° 0 mm 1 mps 747 mmHg 73%
    05:00 +17°C° 0 mm 2 mps 747 mmHg 75%
    06:00 +17°C° 0 mm 2 mps 747 mmHg 77%
    07:00 +18°C° 0 mm 3 mps 747 mmHg 76%
    08:00 +20°C° 0 mm 3 mps 747 mmHg 74%
    09:00 +21°C° 0 mm 4 mps 747 mmHg 73%
    10:00 +22°C° 0.3 mm 4 mps 747 mmHg 71%
    11:00 +23°C° 0.3 mm 5 mps 746 mmHg 69%
    12:00 +23°C° 0.3 mm 6 mps 746 mmHg 68%
    13:00 +23°C° 0.2 mm 5 mps 746 mmHg 71%
    14:00 +22°C° 0.2 mm 4 mps 745 mmHg 74%
    15:00 +22°C° 0.2 mm 3 mps 745 mmHg 77%
    16:00 +23°C° 1.4 mm 2 mps 745 mmHg 79%
    17:00 +23°C° 1.4 mm 2 mps 744 mmHg 80%
    18:00 +21°C° 1.4 mm 2 mps 744 mmHg 82%
    19:00 +21°C° 0.8 mm 2 mps 744 mmHg 83%
    20:00 +21°C° 0.8 mm 1 mps 744 mmHg 84%
    21:00 +21°C° 0.8 mm 1 mps 743 mmHg 84%
    22:00 +19°C° 0.3 mm 2 mps 743 mmHg 86%
    23:00 +18°C° 0.3 mm 3 mps 743 mmHg 88%

    26 May, Sunday

    Time Temperature Precipitation Wind Pressure Humidity
    00:00 +17°C° 0.3 mm 3 mps 743 mmHg 90%
    01:00 +17°C° 0 mm 3 mps 743 mmHg 92%
    02:00 +15°C° 0 mm 4 mps 743 mmHg 94%
    03:00 +15°C° 0 mm 4 mps 743 mmHg 96%
    04:00 +15°C° 0.1 mm 4 mps 744 mmHg 95%
    05:00 +15°C° 0.1 mm 5 mps 744 mmHg 94%
    06:00 +15°C° 0.1 mm 5 mps 744 mmHg 92%
    07:00 +17°C° 0.1 mm 6 mps 744 mmHg 87%
    08:00 +19°C° 0.1 mm 6 mps 745 mmHg 81%
    09:00 +20°C° 0.1 mm 7 mps 745 mmHg 76%
    10:00 +21°C° 0.4 mm 7 mps 745 mmHg 73%
    11:00 +21°C° 0.4 mm 8 mps 745 mmHg 70%
    12:00 +22°C° 0.4 mm 8 mps 745 mmHg 67%
    13:00 +22°C° 0.9 mm 7 mps 745 mmHg 68%
    14:00 +22°C° 0.9 mm 7 mps 745 mmHg 69%
    15:00 +22°C° 0.9 mm 7 mps 746 mmHg 70%
    16:00 +22°C° 0.6 mm 6 mps 746 mmHg 71%
    17:00 +22°C° 0.6 mm 5 mps 746 mmHg 72%
    18:00 +22°C° 0.6 mm 4 mps 747 mmHg 73%
    19:00 +21°C° 0.1 mm 4 mps 747 mmHg 76%
    20:00 +19°C° 0.1 mm 4 mps 747 mmHg 79%
    21:00 +18°C° 0.1 mm 3 mps 748 mmHg 82%
    22:00 +17°C° 0 mm 3 mps 748 mmHg 82%
    23:00 +17°C° 0 mm 3 mps 748 mmHg 82%
    Show more